Date String (YYYY-MM-DD hh:mm:ss) UTC,Instrument flags,absolute air pressure of the measurement (hPa),sample flow rate (lpm),inlet stack bypass flow (lpm),air temperature of the measurement (°C),ambient temperature measured by the external sensor (°C),aerosol sample conditioner tube jacket temperature (°C),OPC LED temperature (°C),internal box temperature (°C),relative humidity of the measurement (%),span deviation,mass concentration of particles derived from Lorenz-Mie calculation of OPC scattering (μg/m³),mass concentration of particles derived from Lorenz-Mie calculation of OPC scattering (μg/m³),mass concentration of particles derived from Lorenz-Mie calculation of OPC scattering (μg/m³)
DateTimeUTC,F1_M11,P_M11,Q1_M11,Q2_M11,T1_M11,T2_M11,T3_M11,T4_M11,T5_M11,U1_M11,ZSPAN_M11,X0_M11,X2_M11,X1_M11
2023-10-31 10:00:00,SystemResetWarning,0838.3,5.00,000.00,021.1,020.4,000.0,029.4,022.6,11.0,0000.5,0008.79,0005.15,0004.82
2023-10-31 10:01:00,SystemResetWarning,0838.3,5.00,000.00,021.1,020.4,000.0,029.4,022.5,11.1,0001.1,0008.90,0005.21,0004.87
2023-10-31 10:02:00,SystemResetWarning,0838.3,5.00,000.00,021.1,020.3,000.0,029.4,022.5,11.1,0000.4,0008.97,0005.24,0004.91
2023-10-31 10:03:00,SystemResetWarning,0838.3,4.99,000.00,021.1,020.2,000.0,029.4,022.4,11.1,-000.1,0009.04,0005.30,0004.95
2023-10-31 10:04:00,SystemResetWarning,0838.3,5.00,000.00,021.0,020.2,000.0,029.4,022.4,11.2,-000.4,0009.05,0005.33,0004.99
2023-10-31 10:05:00,SystemResetWarning,0838.2,5.00,000.00,021.0,020.1,000.0,029.4,022.4,11.2,-000.6,0009.13,0005.37,0005.00
2023-10-31 10:06:00,SystemResetWarning,0838.2,5.00,000.00,021.0,020.1,000.0,029.4,022.3,11.1,0000.0,0008.65,0005.38,0005.02
2023-10-31 10:07:00,SystemResetWarning,0838.2,5.00,000.00,021.0,020.0,000.0,029.4,022.3,11.1,0000.0,0008.72,0005.43,0005.04
2023-10-31 10:08:00,SystemResetWarning,0838.2,5.00,000.00,021.0,020.0,000.0,029.4,022.3,11.1,0000.0,0009.14,0005.47,0005.07
2023-10-31 10:09:00,SystemResetWarning,0838.2,5.00,000.00,020.9,019.9,000.0,029.4,022.2,11.1,0000.0,0009.15,0005.49,0005.09
2023-10-31 10:10:00,SystemResetWarning,0838.2,5.00,000.00,020.9,019.9,000.0,029.4,022.2,11.1,0000.0,0009.49,0005.55,0005.12
2023-10-31 10:11:00,SystemResetWarning,0838.2,5.00,000.00,020.9,019.8,000.0,029.4,022.2,11.2,0000.0,0009.55,0005.57,0005.14
2023-10-31 10:12:00,SystemResetWarning,0838.2,5.01,000.00,020.9,019.8,000.0,029.4,022.1,11.2,0000.0,0009.51,0005.54,0005.11
2023-10-31 10:13:00,SystemResetWarning,0838.2,5.01,000.00,020.9,019.7,000.0,029.3,022.1,11.2,-000.7,0009.57,0005.55,0005.10
2023-10-31 10:14:00,SystemResetWarning,0838.2,5.00,000.00,020.8,019.7,000.0,029.3,022.1,11.3,-000.2,0009.64,0005.56,0005.09
2023-10-31 10:15:00,SystemResetWarning,0838.2,5.00,000.00,020.8,019.6,000.0,029.3,022.1,11.4,0000.0,0009.82,0005.55,0005.07
2023-10-31 10:16:00,SystemResetWarning,0838.2,5.00,000.00,020.8,019.6,000.0,029.3,022.1,11.3,0000.0,0010.08,0005.55,0005.07
2023-10-31 10:17:00,SystemResetWarning,0838.2,5.00,000.00,020.9,020.0,000.0,029.3,022.6,11.2,0000.0,0010.15,0005.58,0005.08
2023-10-31 10:18:00,SystemResetWarning,0838.2,5.00,000.00,021.0,020.8,000.0,029.3,023.1,11.1,0000.0,0010.09,0005.57,0005.09
2023-10-31 10:19:00,SystemResetWarning,0838.2,5.00,000.00,021.2,021.2,000.0,029.4,023.1,11.0,0000.5,0009.69,0005.56,0005.07
2023-10-31 10:20:00,SystemResetWarning,0838.1,4.99,000.00,021.2,021.1,000.0,029.4,022.9,10.9,0000.2,0009.71,0005.53,0005.06
2023-10-31 10:21:00,SystemResetWarning,0838.2,5.00,000.00,021.2,020.9,000.0,029.4,022.8,10.9,0000.2,0009.43,0005.49,0005.04
2023-10-31 10:22:00,SystemResetWarning,0838.2,5.02,000.00,021.2,020.8,000.0,029.4,022.8,10.9,0000.5,0009.28,0005.47,0005.03
2023-10-31 10:23:00,SystemResetWarning,0838.2,5.00,000.00,021.2,020.6,000.0,029.4,022.7,10.9,0001.1,0009.32,0005.45,0005.01
2023-10-31 10:24:00,SystemResetWarning,0838.2,4.99,000.00,021.2,020.5,000.0,029.4,022.7,11.0,0001.0,0009.31,0005.41,0004.97
2023-10-31 10:25:00,SystemResetWarning,0838.2,4.99,000.00,021.2,020.4,000.0,029.4,022.6,11.2,0000.8,0009.18,0005.36,0004.93
2023-10-31 10:26:00,SystemResetWarning,0838.2,5.01,000.00,021.1,020.3,000.0,029.4,022.5,11.2,0000.9,0009.02,0005.33,0004.89
2023-10-31 10:27:00,SystemResetWarning,0838.2,5.01,000.00,021.1,020.3,000.0,029.4,022.5,11.2,0000.1,0008.59,0005.34,0004.89
2023-10-31 10:28:00,SystemResetWarning,0838.2,5.00,000.00,021.1,020.2,000.0,029.4,022.5,11.3,-000.1,0008.60,0005.30,0004.84
2023-10-31 10:29:00,SystemResetWarning,0838.2,4.99,000.00,021.1,020.1,000.0,029.4,022.5,11.3,0000.7,0008.91,0005.26,0004.79
2023-10-31 10:30:00,SystemResetWarning,0838.1,5.00,000.00,021.0,020.1,000.0,029.4,022.5,11.4,0001.4,0009.27,0005.22,0004.77
2023-10-31 10:31:00,SystemResetWarning,0838.1,4.99,000.00,021.0,020.1,000.0,029.4,022.4,11.5,0001.4,0009.31,0005.22,0004.74
2023-10-31 10:32:00,SystemResetWarning,0838.0,5.00,000.00,021.0,020.0,000.0,029.4,022.4,11.5,0001.7,0009.24,0005.20,0004.72
2023-10-31 10:33:00,SystemResetWarning,0838.0,5.00,000.00,021.0,020.0,000.0,029.4,022.4,11.4,0001.0,0009.23,0005.19,0004.70
2023-10-31 10:34:00,SystemResetWarning,0838.0,5.00,000.00,021.0,019.9,000.0,029.4,022.3,11.4,0001.2,0009.31,0005.20,0004.69
2023-10-31 10:35:00,SystemResetWarning,0838.0,5.01,000.00,021.0,019.9,000.0,029.4,022.3,11.4,0002.9,0009.27,0005.19,0004.71
2023-10-31 10:36:00,SystemResetWarning,0838.0,5.01,000.00,020.9,019.9,000.0,029.4,022.2,11.3,0002.8,0009.42,0005.20,0004.75
2023-10-31 10:37:00,SystemResetWarning,0838.0,5.01,000.00,020.9,019.9,000.0,029.4,022.2,11.3,0003.4,0009.35,0005.18,0004.77
2023-10-31 10:38:00,SystemResetWarning,0838.0,5.00,000.00,020.9,019.8,000.0,029.4,022.2,11.3,0003.8,0009.25,0005.15,0004.76
2023-10-31 10:39:00,SystemResetWarning,0838.0,4.99,000.00,020.9,019.8,000.0,029.4,022.2,11.4,0002.3,0009.22,0005.16,0004.78
2023-10-31 10:40:00,SystemResetWarning,0837.9,5.00,000.00,020.9,019.8,000.0,029.3,022.2,11.5,0000.0,0009.09,0005.25,0004.83
2023-10-31 10:41:00,SystemResetWarning,0837.8,5.00,000.00,020.9,019.7,000.0,029.3,022.2,11.5,0000.0,0008.69,0005.26,0004.83
2023-10-31 10:42:00,SystemResetWarning,0837.9,5.00,000.00,020.9,019.8,000.0,029.3,022.3,11.5,0000.0,0008.47,0005.22,0004.82
2023-10-31 10:43:00,SystemResetWarning,0838.0,5.00,000.00,021.0,020.3,000.0,029.3,022.8,11.5,0000.0,0008.45,0005.21,0004.81
2023-10-31 10:44:00,SystemResetWarning,0838.0,5.01,000.00,021.1,021.1,000.0,029.4,023.2,11.5,0000.0,0008.49,0005.23,0004.82
2023-10-31 10:45:00,SystemResetWarning,0838.0,5.00,000.00,021.2,021.2,000.0,029.4,023.0,11.5,0000.0,0008.45,0005.25,0004.83
2023-10-31 10:46:00,SystemResetWarning,0838.0,4.99,000.00,021.3,021.0,000.0,029.4,022.9,11.4,0000.0,0008.31,0005.24,0004.82
2023-10-31 10:47:00,SystemResetWarning,0837.8,5.00,000.00,021.2,020.9,000.0,029.4,022.8,11.4,0000.0,0008.09,0005.25,0004.82
2023-10-31 10:48:00,SystemResetWarning,0837.7,5.00,000.00,021.2,020.7,000.0,029.4,022.7,11.3,0000.0,0008.17,0005.26,0004.81
2023-10-31 10:49:00,SystemResetWarning,0837.8,5.00,000.00,021.2,020.6,000.0,029.5,022.7,11.2,0000.0,0008.19,0005.25,0004.80
2023-10-31 10:50:00,SystemResetWarning,0837.8,5.00,000.00,021.2,020.4,000.0,029.5,022.6,11.3,0000.0,0008.40,0005.25,0004.81
2023-10-31 10:51:00,SystemResetWarning,0837.8,5.00,000.00,021.2,020.3,000.0,029.5,022.6,11.4,0000.0,0008.44,0005.21,0004.82
2023-10-31 10:52:00,SystemResetWarning,0837.8,5.00,000.00,021.1,020.2,000.0,029.5,022.5,11.4,0000.0,0009.50,0005.23,0004.84
2023-10-31 10:53:00,SystemResetWarning,0837.8,5.00,000.00,021.1,020.1,000.0,029.5,022.4,11.3,0001.5,0009.78,0005.30,0004.86
2023-10-31 10:54:00,SystemResetWarning,0837.8,5.00,000.00,021.1,020.0,000.0,029.4,022.4,11.2,0002.9,0009.87,0005.34,0004.89
2023-10-31 10:55:00,SystemResetWarning,0837.8,5.00,000.00,021.0,020.0,000.0,029.4,022.3,11.2,0002.4,0009.82,0005.33,0004.89
2023-10-31 10:56:00,SystemResetWarning,0837.8,5.00,000.00,021.0,019.9,000.0,029.4,022.3,11.2,0000.0,0009.89,0005.35,0004.89
2023-10-31 10:57:00,SystemResetWarning,0837.8,5.00,000.00,021.0,019.8,000.0,029.4,022.2,11.2,0001.3,0010.34,0005.34,0004.89
2023-10-31 10:58:00,SystemResetWarning,0837.8,5.00,000.00,020.9,019.8,000.0,029.4,022.2,11.2,0000.0,0010.38,0005.33,0004.87
2023-10-31 10:59:00,SystemResetWarning,0837.8,5.01,000.00,020.9,019.7,000.0,029.4,022.2,11.2,0000.0,0010.35,0005.31,0004.84
